Dewpoint
39 37 33 32 34 33 32 31 30 31 33 32 31 30 30 31 31 31 32 33 34 35 38 42 43 44 45 44 46 49 54 59 61 63 61 57 52 50 45 41 39 37 33 33
37 34 34 34 34 33 33 31 30 30 31 31 29 29 30 30 30 29 28 28 30 32 34 37 41 42 43 44 48 53 57 61 61 60 60 57 51 46 38 37 34 33 32 32
32 32 33 34 34 32 32 31 29 28 29 30 29 26 23 22 23 23 26 27 27 27 28 33 37 40 44 45 50 56 59 61 60 60 57 50 44 36 33 32 32 32 29 29
34 34 32 32 32 32 30 30 30 29 29 25 27 22 22 21 22 23 23 24 25 28 29 30 33 37 41 47 53 58 60 60 60 53 49 48 49 43 33 32 31 29 28 28
32 32 33 32 31 32 30 31 29 29 29 28 27 27 20 23 21 21 21 21 23 26 28 30 33 35 40 47 55 59 59 59 55 52 51 53 47 45 33 30 27 27 27 27
32 35 33 31 33 33 33 31 31 30 30 27 25 24 20 19 19 20 22 22 25 26 31 33 36 38 40 48 56 59 59 57 53 50 48 47 39 32 30 28 27 26 25 25
32 32 33 33 30 33 33 30 25 24 25 21 19 22 21 20 21 21 20 23 29 32 28 34 36 41 43 49 55 57 57 53 51 49 46 43 36 31 30 28 27 26 24 23
28 27 32 35 31 28 30 28 24 17 15 15 20 20 18 20 23 23 27 31 33 36 36 32 35 41 44 50 53 55 55 52 51 50 44 42 36 33 30 29 27 25 24 23
29 26 32 33 33 32 32 30 29 27 25 23 19 20 20 21 22 23 25 32 33 35 39 37 37 42 46 49 52 54 54 52 50 46 38 35 34 32 30 28 27 25 23 19
31 29 29 32 35 34 32 31 29 31 20 17 14 13 17 16 19 26 29 28 33 36 38 39 38 43 46 49 52 53 53 50 46 43 36 30 29 28 28 27 25 23 19 17
33 30 29 32 32 28 32 31 34 30 28 19 13 10 14 18 23 21 28 32 35 38 39 40 39 44 48 50 52 52 51 48 43 38 31 28 27 26 24 23 22 20 17 16
34 31 28 28 27 29 27 26 28 28 25 27 24 22 21 21 21 27 28 31 33 40 41 43 43 46 49 51 51 50 47 44 40 31 30 27 25 24 22 19 18 16 15 15
33 32 26 28 29 30 29 28 28 31 31 28 25 19 18 21 26 27 27 27 32 39 41 42 44 46 48 49 48 45 43 37 31 29 26 24 23 21 18 17 15 15 14 14
35 30 31 24 28 31 33 30 31 33 28 26 26 24 22 22 21 21 23 25 34 39 42 42 43 45 46 47 42 38 33 29 29 27 25 23 21 19 17 16 15 15 14 15
34 32 33 31 30 31 33 32 32 32 31 27 24 23 23 24 24 25 28 34 34 40 40 42 42 42 43 38 33 29 26 27 24 24 23 20 18 18 17 16 15 15 16 16
36 32 34 32 34 33 33 34 35 34 34 32 29 28 29 29 31 29 32 36 38 38 39 41 40 40 37 30 27 24 23 23 25 21 20 18 18 18 18 16 16 18 18 16
35 35 33 29 31 34 31 34 34 35 36 33 30 30 29 30 35 37 39 40 38 40 41 40 38 37 33 27 24 25 25 25 22 19 18 18 17 16 16 15 16 17 16 16
36 34 34 30 34 27 36 38 38 36 35 36 33 31 32 35 39 40 41 41 39 41 43 39 36 31 28 27 30 27 24 22 19 18 17 17 16 15 14 14 15 15 14 14
37 37 33 31 30 29 34 36 39 35 32 33 34 33 32 35 38 36 37 38 39 43 41 38 32 26 24 22 21 20 19 18 18 17 17 15 13 12 12 13 14 14 13 13
37 39 35 32 28 26 32 33 37 36 30 33 35 34 33 35 34 39 35 39 41 40 36 32 27 24 21 20 19 18 17 17 17 16 15 13 12 11 12 14 14 13 13 12
33 34 31 29 29 28 32 34 40 29 30 34 37 34 36 36 38 35 35 34 35 36 33 28 25 23 20 19 18 17 17 16 15 14 12 11 12 12 13 14 13 14 12 12
30 30 30 30 27 27 33 36 32 34 35 34 38 40 40 38 34 33 32 32 32 30 27 24 21 19 18 18 17 16 15 14 13 11 11 12 12 12 14 17 16 14 13 11
31 31 29 30 30 34 34 35 36 36 35 35 37 39 37 34 32 31 30 28 27 25 24 22 20 19 18 17 16 13 13 12 11 12 13 12 13 13 15 16 16 13 12 10
34 35 33 34 34 35 36 36 36 36 36 36 37 37 35 33 31 29 27 26 24 23 21 19 18 17 16 14 14 12 11 11 12 11 12 12 12 12 13 13 14 12 11 10
34 36 35 35 35 36 36 36 35 36 36 36 36 35 33 31 29 28 26 24 23 21 20 19 17 16 14 13 11 10 10 12 12 12 12 13 13 13 13 13 14 13 13 17
36 35 34 32 35 35 34 35 36 36 35 34 33 31 31 30 28 26 24 23 21 19 18 17 16 14 12 10 9 10 11 11 10 9 10 12 13 13 13 12 11 17 17 19
Lifted_Index
7 6 6 6 7 7 7 6 6 7 7 7 7 7 7 8 7 7 7 7 6 6 5 5 4 3 3 3 2 1 -1 -2 -3 -3 -3 -3 -3 -3 -3 -2 -1 -1 -0 0
6 6 6 7 7 7 7 6 6 7 7 7 7 6 7 7 7 7 7 7 7 6 6 5 4 4 3 3 2 1 -1 -2 -3 -2 -2 -3 -3 -3 -2 -2 -1 -0 0 1
6 6 7 7 7 6 6 6 6 6 6 7 6 5 5 7 7 7 7 7 7 7 6 6 5 4 4 3 2 0 -1 -2 -2 -2 -2 -3 -3 -3 -2 -2 -1 0 2 3
6 6 7 7 6 6 5 6 6 6 6 5 5 4 4 6 7 7 7 7 7 7 7 7 6 6 5 3 2 0 -1 -1 -1 -2 -2 -3 -3 -3 -2 -1 -1 1 3 6
6 7 7 7 6 6 6 6 6 6 5 5 4 4 4 5 6 6 7 7 7 8 8 7 7 6 5 4 2 0 -0 -0 -1 -2 -3 -3 -3 -2 -2 -1 -0 1 5 7
7 7 7 7 6 7 7 6 6 5 4 3 4 4 4 5 6 6 7 7 7 7 7 7 6 6 5 4 2 1 0 0 -0 -2 -3 -3 -3 -2 -1 -0 1 2 5 8
5 6 6 6 6 7 7 6 4 2 2 2 3 3 4 5 6 6 6 6 6 6 7 7 6 5 5 4 2 1 1 1 -0 -2 -3 -3 -3 -2 -1 0 1 3 6 8
4 4 5 6 6 6 6 5 3 2 1 2 3 3 3 5 5 5 4 5 5 5 6 6 6 5 5 4 2 2 2 1 -0 -2 -2 -3 -2 -1 -0 1 2 4 7 9
3 4 5 6 7 6 6 5 4 3 2 2 3 3 3 3 3 3 2 2 3 4 5 6 6 5 4 3 2 2 2 1 -0 -2 -2 -2 -1 -0 1 2 3 6 9 9
5 5 6 7 7 6 6 5 4 3 2 1 2 2 3 3 2 1 0 1 2 3 4 5 5 5 4 3 2 2 2 2 0 -1 -2 -1 -0 1 1 2 5 8 9 9
6 6 6 6 6 6 6 5 4 3 2 1 1 1 2 2 1 0 -0 0 1 3 3 4 5 5 4 3 2 2 2 2 0 -1 -1 -1 0 1 2 4 7 9 9 9
7 6 5 5 6 6 5 4 3 2 2 1 1 1 1 1 1 0 0 0 1 3 3 4 4 4 3 3 2 2 2 1 -0 -1 -1 -0 0 1 3 6 8 9 9 10
7 6 5 4 5 5 4 3 3 2 2 1 1 1 1 1 1 1 1 1 2 3 4 4 4 4 4 3 2 2 1 0 -1 -1 -1 -0 1 2 5 7 9 9 10 10
6 6 5 4 4 4 3 3 3 3 2 1 1 1 1 1 1 1 1 1 2 3 4 4 4 4 4 3 2 1 0 -1 -1 -1 -0 1 2 4 7 8 9 9 10 10
6 6 5 4 4 3 3 3 3 2 2 1 1 1 1 1 1 1 2 2 2 3 4 3 3 4 4 3 1 -0 -1 -1 -1 -0 1 3 5 7 8 9 9 10 10 10
5 5 4 3 3 3 2 2 2 2 2 2 2 2 2 2 2 2 2 2 2 3 3 3 3 3 3 2 -0 -1 -1 -1 -0 1 3 5 7 8 9 9 9 10 10 11
5 5 3 2 2 2 2 2 2 2 2 2 3 3 3 3 3 3 3 2 2 2 2 2 3 2 2 0 -1 -2 -1 -0 1 3 5 6 7 8 9 9 10 10 10 11
5 5 4 2 2 2 2 2 2 2 2 3 3 4 4 4 4 3 3 2 2 2 2 2 2 1 0 -1 -1 -1 -0 1 3 4 5 7 8 8 9 10 10 10 11 11
5 5 4 2 1 1 1 2 2 2 2 2 3 3 4 4 3 3 2 2 2 1 1 1 0 0 -0 -0 -0 1 1 3 4 5 6 8 9 9 10 10 11 11 12 13
5 4 3 2 1 1 1 2 2 2 2 2 2 3 3 3 2 2 2 2 2 1 1 1 1 0 1 1 2 3 3 4 5 6 8 9 10 10 11 11 12 13 15 16
4 4 3 2 2 2 2 2 2 2 2 2 2 2 2 2 2 2 2 2 2 2 2 2 1 2 2 3 4 4 5 6 7 8 9 10 11 11 12 13 14 15 17 17
4 4 3 3 2 2 2 2 2 2 2 2 2 1 1 2 2 2 2 2 2 2 2 2 2 3 4 5 5 5 6 7 8 9 10 11 12 13 13 15 16 17 17 17
4 4 3 3 3 3 3 2 2 2 2 2 1 1 1 1 2 2 2 2 2 2 2 2 2 3 4 6 6 6 7 8 9 10 11 12 13 14 15 16 17 17 17 16
4 4 3 3 3 3 3 2 2 2 2 1 1 1 1 1 2 2 2 2 2 2 2 2 3 3 4 6 7 8 9 10 11 12 12 13 14 15 16 17 17 17 17 17
3 3 3 3 2 2 2 2 2 2 2 1 1 1 1 1 2 2 2 2 2 2 2 3 3 4 5 7 9 10 11 12 13 13 14 14 15 16 17 17 17 17 18 19
3 3 3 2 2 2 2 2 2 2 2 2 1 1 1 2 2 2 2 2 2 2 3 3 4 4 5 7 10 11 13 14 14 14 14 15 16 16 17 17 17 18 19 20